Wind_Speed
46 47 48 48 48 48 48 48 48 47 47 48 49 50 51 52 54 55 56 57 58 59 60 61 61 62 62 62 62 63 62 62 62 62 63 63 63 63 63 63 62 62 62
45 46 47 48 48 48 49 49 49 49 49 50 51 52 53 55 57 58 59 60 61 61 62 62 62 62 62 62 62 61 61 61 61 60 60 60 60 61 60 60 59 58 57
45 46 46 46 47 47 47 48 49 50 51 52 53 55 56 58 59 60 60 61 62 61 61 61 62 61 61 61 60 59 59 59 58 57 57 57 57 57 56 56 55 53 53
40 42 43 44 44 45 46 47 49 50 51 53 55 56 57 59 59 61 61 62 62 61 61 60 59 58 58 58 57 57 57 56 55 54 53 53 53 52 51 49 48 48 47
35 36 38 39 39 41 43 45 47 50 51 53 55 56 58 59 60 60 60 59 59 59 58 57 55 55 55 55 55 54 53 51 50 49 48 47 46 46 44 43 42 40 39
33 35 36 37 39 40 43 45 46 48 50 52 53 55 56 57 57 58 58 57 57 56 55 54 53 52 51 50 49 48 46 44 43 43 41 40 39 38 37 36 34 33 32
32 34 35 37 38 40 42 43 45 47 48 50 51 53 54 54 55 55 55 54 54 53 52 50 48 47 45 44 43 41 40 39 37 35 34 33 32 32 31 30 29 28 28
32 33 35 37 38 40 41 42 44 45 47 49 50 51 52 52 52 52 51 50 49 48 46 44 42 40 39 37 36 35 34 33 31 30 29 28 27 26 25 25 24 25 26
32 34 35 36 38 39 40 42 44 45 46 47 48 49 49 49 48 48 47 45 44 41 39 37 36 34 32 31 30 29 28 26 25 24 23 21 20 21 21 22 23 24 25
31 33 34 36 37 38 39 41 42 43 44 45 45 45 45 45 44 42 40 38 36 33 31 30 27 26 25 24 23 22 20 19 19 18 17 17 18 19 20 21 22 23 24
31 32 33 34 35 36 37 39 40 41 41 41 40 40 39 38 36 34 32 30 28 25 23 21 19 18 17 17 15 14 14 14 14 14 15 16 17 19 20 21 22 23 24
29 29 30 31 32 34 35 36 36 36 35 34 33 33 31 30 27 25 22 20 18 16 14 13 12 12 11 10 10 10 10 11 12 13 15 16 18 19 20 21 21 22 22
25 26 27 28 30 31 32 31 31 30 28 27 26 25 23 21 19 17 14 12 10 8 6 6 6 6 6 6 6 7 8 10 12 13 15 17 18 19 20 21 21 21 22
23 24 25 26 26 26 26 25 25 24 23 22 21 19 17 15 13 11 8 6 5 4 4 5 5 5 5 5 6 8 9 11 13 14 16 17 19 19 20 21 21 21 22
21 21 22 22 23 23 22 21 21 20 19 18 16 15 13 11 10 8 7 7 7 8 8 8 8 7 7 8 9 10 11 13 14 16 17 18 19 20 20 21 21 21 21
18 19 19 19 20 20 19 18 18 17 16 15 14 12 11 10 9 9 9 9 10 10 10 10 9 9 10 10 11 12 13 14 16 17 18 19 20 20 21 21 21 20 20
16 16 17 17 17 17 16 16 15 15 14 13 13 11 11 10 10 11 11 12 12 12 11 11 11 11 12 12 13 14 15 16 18 18 19 19 20 21 21 21 20 20 19
14 15 15 15 15 15 14 14 13 13 13 13 12 12 11 11 12 12 13 13 12 12 12 12 12 13 13 13 14 15 17 18 19 20 20 20 21 22 21 20 20 19 19
13 13 13 13 13 13 13 13 13 12 12 12 12 12 12 13 13 14 14 13 13 12 12 13 13 13 14 15 16 17 18 18 19 20 20 21 22 22 21 21 20 19 19
11 12 11 12 12 12 11 11 12 12 12 12 13 13 14 14 14 14 14 13 12 12 12 13 13 14 15 16 16 17 18 19 20 20 20 21 21 22 21 21 20 19 19
10 10 10 10 10 10 10 11 11 11 12 13 13 14 14 14 14 14 14 13 13 13 13 13 14 14 15 16 17 17 18 19 20 20 20 21 21 21 21 21 20 19 19
9 9 9 9 9 9 10 10 10 11 11 12 12 13 13 13 13 13 13 13 13 13 13 13 14 14 15 16 17 17 18 20 20 20 20 20 20 20 21 21 20 19 19
9 8 8 8 8 8 9 9 10 10 10 11 11 11 12 12 12 12 12 12 12 12 13 13 13 14 15 16 17 17 18 19 20 20 20 20 20 20 20 21 21 20 19
9 9 9 9 9 9 9 9 9 9 10 10 10 10 10 11 11 11 11 12 12 12 13 13 14 14 15 16 16 17 18 19 19 19 20 20 20 20 20 20 20 20 19
10 10 10 10 9 9 9 9 9 9 9 9 9 9 10 10 10 10 11 11 12 12 12 13 13 14 15 16 16 17 18 19 19 19 19 19 19 19 19 19 19 19 19
11 11 10 10 9 9 9 9 9 9 9 9 9 9 9 9 10 10 11 11 12 12 13 13 13 14 15 16 16 17 18 18 18 19 19 19 19 19 19 19 19 19 18
Wind_Direction
276 277 278 280 281 282 283 283 283 284 284 284 285 285 286 288 288 288 288 287 288 288 288 289 289 289 289 289 289 289 289 289 289 288 288 289 289 290 290 291 290 290 290
276 276 277 278 279 280 281 282 281 281 281 283 284 285 286 287 288 288 288 289 289 289 289 289 289 289 288 288 289 289 289 289 289 289 290 290 291 291 292 293 293 292 292
278 278 278 277 278 278 279 280 280 281 282 284 285 285 286 287 287 288 289 289 289 289 289 289 288 288 288 288 288 288 289 289 290 291 291 292 293 294 295 295 295 295 295
278 276 276 277 279 280 281 281 281 282 284 285 285 286 287 287 287 287 287 288 288 288 288 287 287 288 288 288 289 289 290 291 291 292 293 294 294 295 296 297 297 298 297
279 280 281 283 284 284 283 283 284 284 284 285 286 286 286 287 287 288 287 287 288 288 288 288 288 288 289 290 290 291 291 292 293 294 295 295 296 297 299 300 300 301 300
281 283 284 286 287 286 285 285 286 286 287 287 287 287 287 288 288 288 288 288 288 289 289 289 289 290 290 290 291 292 292 293 295 296 296 297 298 300 302 304 305 305 304
284 285 287 288 288 288 288 287 287 288 288 288 289 289 289 289 289 289 289 289 289 289 289 289 290 290 291 292 292 293 294 296 296 296 297 299 302 304 306 308 310 310 310
288 288 288 289 290 291 291 291 291 292 292 292 291 291 291 290 290 290 290 290 290 290 289 289 290 291 292 293 294 296 298 298 298 298 300 302 305 307 310 313 313 315 315
291 291 292 293 294 295 295 295 295 295 295 295 294 293 293 293 292 292 292 291 291 290 289 289 290 291 293 295 297 299 300 300 302 303 306 308 311 315 317 317 318 319 319
294 294 295 296 298 299 300 300 299 298 298 297 297 296 295 295 295 295 294 294 293 292 291 291 292 293 295 297 300 302 304 307 310 313 315 317 320 322 322 323 323 323 323
297 298 299 301 302 303 304 304 303 302 301 301 300 300 300 299 298 297 297 296 295 294 294 294 295 297 300 304 307 309 312 314 318 322 326 329 330 330 329 329 328 329 329
301 302 304 306 307 308 308 308 308 307 307 307 307 307 307 307 305 304 302 300 299 297 296 297 300 305 311 315 320 325 328 332 336 339 340 340 339 338 337 336 335 335 335
306 307 309 311 313 314 315 315 315 315 315 316 317 317 318 319 319 316 314 313 311 309 311 317 326 333 340 346 350 352 353 353 352 350 349 348 347 346 346 344 343 343 343
309 312 315 318 320 322 324 325 325 326 326 328 330 332 333 335 337 341 348 358 10 21 29 35 38 38 33 29 23 17 10 4 2 360 357 355 354 353 352 351 351 350 350
315 318 321 325 328 329 330 332 333 336 337 339 343 346 350 356 3 13 28 47 59 64 68 67 62 58 53 47 37 29 22 16 11 7 3 0 0 360 360 360 359 360 0
323 326 328 331 335 338 341 343 344 346 350 355 359 2 10 19 31 43 57 68 74 76 76 73 71 66 58 48 39 32 25 20 14 10 8 7 5 5 5 5 5 7 10
329 332 334 337 341 344 348 351 355 360 5 11 16 22 31 40 51 61 70 76 79 79 77 74 70 63 54 45 38 32 26 21 17 14 12 10 9 9 9 10 12 14 17
330 334 338 342 347 351 355 359 3 8 15 22 29 37 45 54 61 67 73 77 79 77 73 69 64 57 50 42 36 31 25 22 19 17 16 15 15 15 16 17 18 21 24
330 336 341 346 352 358 3 9 15 21 27 33 41 48 56 62 68 72 75 76 75 72 68 63 57 51 45 39 34 29 25 23 21 20 19 19 20 20 22 23 24 27 30
331 337 344 352 359 6 12 18 25 32 39 46 53 60 65 69 72 73 73 72 70 65 60 55 51 46 40 35 32 29 27 25 23 22 22 22 22 23 25 27 30 32 35
336 341 347 356 5 13 21 28 35 42 50 56 62 65 68 71 71 70 69 67 64 59 54 50 46 40 36 33 32 30 29 26 25 24 24 24 25 28 30 31 34 37 39
349 355 0 7 15 23 29 35 41 49 55 60 64 66 68 69 68 65 62 60 57 53 49 44 40 36 34 33 33 32 30 28 27 27 27 27 29 31 33 34 36 39 42
10 14 17 23 27 33 39 43 47 51 56 61 63 64 65 64 63 60 57 53 50 46 42 40 38 35 35 35 34 32 30 29 28 28 29 30 30 32 33 35 37 40 42
27 31 34 36 40 44 46 47 50 53 57 60 62 61 60 59 57 54 50 47 44 41 40 39 38 37 36 35 34 32 31 29 28 28 29 29 31 33 35 37 39 41 43
37 38 40 42 44 47 48 49 51 54 56 58 58 57 56 55 53 49 45 42 41 41 41 41 40 39 35 33 31 30 29 28 28 28 29 30 32 34 37 38 40 42 44
41 42 43 44 45 47 48 49 51 53 54 54 54 53 53 53 51 47 45 44 44 45 44 43 40 37 34 32 31 29 29 29 30 31 32 33 35 37 38 39 41 43 45
Height
5788 5786 5785 5783 5781 5780 5778 5776 5774 5771 5770 5768 5765 5763 5761 5758 5755 5753 5750 5747 5743 5740 5736 5732 5728 5725 5721 5717 5713 5709 5705 5701 5698 5693 5687 5681 5676 5670 5665 5660 5655 5650 5645
5777 5776 5774 5773 5771 5769 5766 5765 5763 5761 5758 5755 5753 5750 5747 5745 5742 5738 5735 5731 5727 5723 5719 5715 5711 5707 5703 5700 5696 5692 5688 5684 5681 5677 5671 5665 5659 5654 5649 5643 5637 5632 5627
5767 5765 5764 5762 5760 5758 5755 5753 5751 5748 5746 5743 5740 5736 5733 5730 5726 5722 5718 5715 5711 5707 5702 5698 5694 5690 5686 5683 5679 5675 5672 5668 5664 5660 5655 5649 5644 5638 5633 5628 5622 5616 5611
5756 5754 5752 5751 5748 5746 5744 5741 5738 5735 5732 5729 5726 5722 5718 5715 5711 5707 5703 5698 5694 5690 5686 5682 5678 5674 5670 5667 5663 5660 5656 5652 5648 5645 5640 5635 5630 5624 5619 5615 5609 5602 5597
5746 5744 5742 5739 5737 5734 5731 5728 5725 5722 5719 5715 5711 5708 5704 5700 5696 5691 5687 5682 5678 5674 5670 5666 5662 5659 5655 5652 5649 5645 5641 5638 5634 5630 5626 5622 5617 5612 5607 5602 5597 5592 5586
5736 5734 5731 5729 5726 5723 5720 5716 5713 5709 5705 5701 5697 5693 5689 5685 5681 5676 5672 5667 5663 5659 5655 5651 5647 5644 5641 5637 5634 5631 5629 5626 5622 5619 5615 5611 5606 5601 5597 5592 5587 5583 5579
5726 5724 5721 5718 5716 5713 5709 5705 5701 5697 5692 5688 5684 5679 5674 5670 5665 5661 5656 5652 5648 5644 5641 5637 5634 5631 5629 5626 5623 5620 5618 5615 5612 5609 5605 5602 5598 5594 5589 5584 5580 5575 5571
5717 5715 5712 5709 5706 5702 5698 5694 5689 5685 5680 5675 5670 5665 5660 5656 5651 5646 5642 5638 5634 5631 5628 5625 5622 5620 5618 5616 5613 5611 5608 5606 5603 5600 5598 5594 5591 5587 5582 5578 5574 5570 5564
5709 5706 5703 5700 5696 5692 5687 5683 5678 5673 5668 5662 5657 5652 5647 5642 5637 5633 5629 5625 5622 5619 5617 5615 5613 5611 5609 5607 5605 5602 5600 5598 5596 5594 5591 5588 5585 5581 5577 5573 5569 5565 5560
5701 5698 5694 5691 5686 5682 5677 5673 5667 5662 5656 5650 5645 5639 5634 5629 5625 5621 5617 5614 5611 5609 5607 5606 5605 5603 5602 5600 5599 5597 5595 5593 5591 5589 5586 5583 5580 5576 5572 5568 5564 5560 5555
5693 5690 5686 5682 5678 5673 5668 5663 5657 5651 5645 5639 5634 5628 5623 5618 5614 5610 5607 5605 5603 5601 5600 5599 5599 5598 5597 5596 5595 5593 5592 5590 5588 5586 5583 5580 5576 5572 5568 5564 5560 5555 5550
5686 5682 5679 5674 5670 5665 5659 5653 5647 5641 5635 5630 5625 5619 5614 5610 5606 5603 5600 5598 5597 5596 5595 5595 5595 5594 5594 5593 5592 5591 5590 5588 5586 5583 5580 5577 5573 5569 5565 5560 5556 5551 5546
5679 5676 5672 5667 5663 5657 5651 5646 5640 5634 5629 5623 5618 5613 5609 5605 5602 5598 5596 5595 5593 5593 5592 5592 5593 5593 5593 5592 5591 5590 5589 5587 5585 5582 5579 5575 5571 5567 5562 5558 5553 5548 5543
5674 5670 5666 5662 5657 5651 5646 5640 5635 5629 5624 5619 5615 5610 5606 5603 5600 5597 5595 5594 5593 5593 5592 5593 5593 5593 5592 5592 5591 5590 5588 5587 5584 5581 5578 5574 5570 5565 5561 5556 5551 5546 5541
5669 5665 5661 5657 5652 5647 5642 5637 5632 5627 5622 5618 5613 5609 5606 5603 5600 5598 5596 5595 5594 5594 5594 5594 5594 5594 5594 5593 5592 5591 5589 5587 5584 5581 5577 5573 5569 5564 5559 5555 5550 5545 5540
5665 5661 5657 5653 5649 5644 5639 5635 5630 5626 5621 5617 5613 5610 5607 5604 5601 5600 5598 5598 5597 5597 5597 5597 5597 5596 5596 5595 5593 5592 5590 5587 5584 5581 5577 5573 5568 5564 5559 5554 5549 5545 5540
5662 5658 5655 5651 5647 5642 5638 5634 5630 5626 5622 5618 5614 5611 5609 5606 5604 5603 5602 5601 5601 5601 5600 5600 5600 5599 5598 5597 5595 5593 5591 5588 5585 5581 5577 5573 5568 5564 5559 5554 5550 5545 5541
5659 5656 5653 5649 5645 5641 5638 5634 5630 5627 5623 5620 5617 5614 5611 5609 5608 5607 5606 5605 5605 5605 5604 5603 5603 5602 5601 5599 5597 5595 5592 5589 5585 5582 5578 5573 5569 5564 5560 5555 5551 5547 5543
5657 5654 5651 5648 5644 5641 5638 5634 5631 5628 5625 5622 5619 5617 5615 5613 5612 5611 5610 5609 5609 5608 5608 5607 5606 5604 5603 5601 5599 5596 5593 5590 5587 5583 5579 5575 5570 5566 5561 5557 5553 5549 5545
5654 5652 5649 5647 5644 5641 5638 5635 5633 5630 5627 5625 5622 5621 5619 5617 5616 5615 5614 5614 5613 5612 5611 5610 5609 5607 5605 5603 5601 5598 5595 5592 5588 5584 5580 5576 5572 5568 5564 5559 5555 5552 5548
5652 5650 5648 5646 5644 5641 5639 5637 5634 5632 5630 5628 5626 5624 5623 5622 5621 5619 5618 5617 5617 5615 5614 5613 5611 5610 5608 5605 5603 5600 5597 5594 5590 5586 5583 5579 5574 5570 5566 5562 5558 5555 5552
5650 5649 5647 5646 5644 5642 5640 5639 5637 5635 5633 5631 5630 5628 5627 5626 5625 5623 5622 5621 5620 5619 5617 5616 5614 5612 5610 5608 5605 5602 5599 5596 5592 5589 5585 5581 5577 5573 5570 5566 5562 5558 5555
5650 5648 5647 5646 5645 5643 5642 5641 5639 5638 5636 5635 5633 5632 5630 5629 5628 5627 5626 5624 5623 5622 5620 5618 5617 5615 5612 5610 5608 5605 5602 5599 5595 5592 5588 5584 5580 5577 5573 5569 5566 5562 5559
5651 5649 5648 5647 5646 5645 5644 5643 5642 5640 5639 5637 5636 5635 5634 5632 5631 5630 5629 5628 5626 5624 5623 5621 5619 5617 5615 5613 5610 5607 5604 5601 5598 5594 5591 5587 5584 5580 5576 5573 5570 5567 5564
5653 5651 5650 5649 5648 5647 5646 5645 5644 5643 5641 5640 5639 5638 5637 5635 5634 5633 5632 5630 5629 5627 5625 5624 5622 5620 5618 5615 5613 5610 5607 5604 5601 5597 5594 5590 5587 5583 5580 5577 5574 5571 5568
5655 5654 5653 5652 5651 5650 5649 5648 5646 5645 5644 5643 5641 5640 5639 5638 5637 5636 5634 5633 5631 5630 5628 5627 5625 5623 5620 5618 5615 5613 5610 5607 5603 5600 5597 5594 5590 5587 5584 5581 5578 5575 5572